Regional Weather Roundup
Issued by NWS

Home | Current Version | Previous Version | Graphics & Text | Print | Product List | Glossary Off
Versions: 1 2 3 4 5 6 7 8 9 10 11 12 13 14 15 16 17 18 19 20 21 22 23 24 25 26 27 28 29 30 31 32 33 34 35 36 37 38 39 40 41 42 43 44 45 46 47 48 49 50

000
ASUS43 KMKX 160059
RWRWI

WISCONSIN REGIONAL WEATHER ROUNDUP
NATIONAL WEATHER SERVICE MILWAUKEE/SULLIVAN WI
700 PM CST FRI DEC 15 2017

NOTE: "FAIR" INDICATES FEW OR NO CLOUDS BELOW 12,000 FEET WITH NO
SIGNIFICANT WEATHER AND/OR OBSTRUCTIONS TO VISIBILITY.

WIZ001-002-006>008-014>016-023>028-160200-
NORTHWEST WISCONSIN

CITY           SKY/WX    TMP DP  RH WIND       PRES   REMARKS
SUPERIOR ARPT  CLOUDY    15   7  70 CALM      29.80S
ASHLAND        CLOUDY    11   6  81 SE3       29.81S
HAYWARD        CLOUDY    16   8  71 S3        29.77R
SIREN          CLOUDY    19  11  70 SE3       29.78R
CUMBERLAND     CLOUDY    18  10  73 SE3       29.77R
RICE LAKE      CLOUDY    18  11  75 CALM      29.79F
CHETEK         CLOUDY    17  11  75 CALM      29.79S
LADYSMITH      CLOUDY    15   9  77 E3        29.80S
EAU CLAIRE     NOT AVBL
MENOMONIE      LGT SNOW  23  18  81 E5        29.79S WCI  17
NEW RICHMOND   LGT SNOW  22  16  78 SE3       29.77S
OSCEOLA        LGT SNOW  22  17  80 SE6       29.80S WCI  15
$$

WIZ003>005-009-010-017-018-160200-
NORTH CENTRAL WISCONSIN

CITY           SKY/WX    TMP DP  RH WIND       PRES   REMARKS
MANITOWISH WTR CLOUDY    -2  -4  92 CALM      29.75S
ARBOR VITAE    CLOUDY     2  -2  84 CALM      29.75S
WOODRUFF       CLOUDY     2  -2  84 CALM      29.75S
RHINELANDER    CLOUDY     2  -1  88 CALM      29.76S
EAGLE RIVER    CLOUDY     3  -1  83 CALM      29.75S
LAND O LAKES   MOCLDY     6   3  86 CALM      29.77S
PHILLIPS       CLOUDY     8   6  89 CALM      29.76S
TOMAHAWK       CLOUDY     5   2  88 CALM      29.78S
MEDFORD        CLOUDY    12   8  82 CALM      29.77R
MERRILL        CLOUDY     8   5  88 CALM      29.80R
$$

WIZ029-030-035-036-043>047-160200-
CENTRAL WISCONSIN

CITY           SKY/WX    TMP DP  RH WIND       PRES   REMARKS
WAUSAU         CLOUDY    13   9  84 CALM      29.78S
MOSINEE        CLOUDY    16   9  73 CALM      29.81R
MARSHFIELD     CLOUDY    16  12  84 CALM      29.78R
STEVENS POINT  CLOUDY    13   8  83 CALM      29.81S
WAUPACA        CLOUDY    20  12  73 CALM      29.84S
WAUTOMA        CLOUDY    23  17  78 CALM      29.84R
WISC RAPIDS    CLOUDY    21  12  68 CALM      29.82S
CAMP DOUGLAS   NOT AVBL
$$

WIZ011>013-019>022-031-037>040-048>050-160200-
NORTHEAST WISCONSIN

CITY           SKY/WX    TMP DP  RH WIND       PRES   REMARKS
ANTIGO         CLOUDY     0  -3  88 CALM      29.78S
SHAWANO        CLOUDY     8   5  85 CALM      29.84S
OCONTO         CLOUDY     4   1  88 CALM      29.85R
STURGEON BAY   CLOUDY    17   9  70 NW8       29.84R WCI   7
GREEN BAY      CLOUDY     7   2  80 CALM      29.85R
MANITOWOC      CLOUDY    12   6  77 CALM      29.86R
APPLETON       CLOUDY    19   7  58 CALM      29.82R
CLINTONVILLE   NOT AVBL
OSHKOSH        CLOUDY    21  15  78 CALM      29.84R
$$

WIZ032>034-041-042-053>061-160200-
SOUTHWEST WISCONSIN

CITY           SKY/WX    TMP DP  RH WIND       PRES   REMARKS
LA CROSSE      CLOUDY    32  27  81 SE3       29.81S
SPARTA         CLOUDY    30  26  86 CALM      29.82S
VIROQUA        CLOUDY    30  29  99 CALM      29.79S
BOSCOBEL       CLOUDY    31  26  82 NE3       29.84S
PRAIRIE DU CHI CLOUDY    32  26  80 E3        29.82F
PLATTEVILLE    CLOUDY    32  28  87 S7        29.83S WCI  25
$$

WIZ056-057-062-063-064-067-068-160200-
SOUTH CENTRAL WISCONSIN

CITY           SKY/WX    TMP DP  RH WIND       PRES   REMARKS
REEDSBURG      CLOUDY    29  26  88 SW6       29.82S WCI  23
BARABOO/DELLS  CLOUDY    29  25  83 SW5       29.82R WCI  24
LONE ROCK      CLOUDY    31  28  89 CALM      29.84S
MINERAL POINT  CLOUDY    32  32 100 S6        29.82S WCI  26
MADISON        FLURRIES  31  26  82 VRB6      29.85R WCI  25
MIDDLETON      CLOUDY    32  28  83 SW5       29.84S WCI  27
WATERTOWN      CLOUDY    30  27  88 SW7       29.84S WCI  23
MONROE         CLOUDY    32  27  80 S9        29.84R WCI  24
JANESVILLE     CLOUDY    32  27  80 SW5       29.86R WCI  27
$$

WIZ051-052-058>065-066-070>072-160200-
SOUTHEAST WISCONSIN

CITY           SKY/WX    TMP DP  RH WIND       PRES   REMARKS
MILWAUKEE      FLURRIES  32  24  72 SW10      29.86R WCI  24
WAUKESHA       CLOUDY    27  23  86 SW7       29.86R WCI  19
MILWAUKEE/TIMM CLOUDY    28  21  74 SW9       29.86R WCI  20
RACINE         CLOUDY    31  25  78 SW12      29.89R WCI  22
BURLINGTON     CLOUDY    30  26  86 SW8       29.87S WCI  23
KENOSHA        CLOUDY    32  24  72 SW10      29.88R WCI  24
FOND DU LAC    CLOUDY    24  16  71 CALM      29.84S
SHEBOYGAN      CLOUDY    20  15  81 CALM      29.84F
WEST BEND      CLOUDY    21  19  93 CALM      29.84R
JUNEAU         CLOUDY    22  18  83 CALM      29.84S
$$

LSZ147-162-160200-
LAKE SUPERIOR

STATION/POSITION TIME  TEMP    WIND        PRES    WAVE
                       AIR SEA DIR/SP/G            HT/PER
                 (UTC) (F)     (DEG/KT/KT) (MB)    (FT/S)
DEVILS ISLAND    0000   18     270/  5/  7 1010.7R
SAXON HARBOR     0040    7                 1009.8S
$$

LMZ867-665-643>646-160200-
LAKE MICHIGAN

STATION/POSITION TIME  TEMP    WIND        PRES    WAVE
                       AIR SEA DIR/SP/G            HT/PER
                 (UTC) (F)     (DEG/KT/KT) (MB)    (FT/S)
NORTHPORT PIER   0040   20     280/  7/  9 1009.8R
KEWAUNEE LAKESHO 0030   12     310/  2/  2 1010.2R
SHEBOYGAN LAKESH 0000   22     300/  5/  6 1011.7R
PORT WASHINGTON  0030   25     270/  2/  3 1012.2S
MILWAUKEE LAKESH 0030   31     240/  9/ 10   N/A
KENOSHA   LAKESH 0000   31     240/ 10/ 13 1012.2
$$

TC  - TEMPERATURE IN CELSIUS
VSB - VISIBILITY IN STATUTE MILES
WCI - WIND CHILL INDEX
HX  - HEAT INDEX





USA.gov is the U.S. government's official web portal to all federal, state and local government web resources and services.